Flag for Congo Dem.Rep. Weather past 2 weeks in Kinshasa, Congo Dem.Rep.

Now
75 °F

Passing clouds.


Feels Like: 76 °F
Forecast: 72 / 88 °F
Wind: 3 mph from Southwest

Location: Brazzaville / Maya-Maya

Current Time: Mar 2, 2015 at 10:04:52 PM

Latest Report: Mar 2, 2015 at 9:00 PM


Visibility: N/A

Pressure: 29.92 "Hg

Humidity: 78%

Dew point: 68 °F

Location of KinshasaLocation

Historic Weather in Kinshasa — Graph

°F

Kinshasa temperature yesterday

Maximum temperature yesterday: 93 °F (at 3:00 PM)
Minimum temperature yesterday: 73 °F (at 6:00 AM)
Average temperature yesterday: 83 °F

Past Weeks' High & Low Weather Summary

 TemperatureHumidityPressure
High95 °F (Feb 16, 3:00 PM)100% (Feb 17, 3:00 AM)30.04 "Hg (Feb 17, 3:00 AM)
Low68 °F (Feb 20, 7:58 AM)44% (Feb 16, 3:00 PM)29.74 "Hg (Feb 18, 4:00 PM)
Average79 °F80%29.88 "Hg
* Reported Feb 15 8:00 PM — Mar 2 8:00 PM, Kinshasa, Weather by CustomWeather, © 2015

Note: Actual official high and low records may vary slightly from our data, if they occured in-between our weather recording intervals... More about our weather records

Advertising

Kinshasa weather history for previous 24 hours

 ConditionsComfort  
Time TempWeatherWind HumidityBarometerVisibility
8:00 PM
Mon, Mar 2
75 °FPassing clouds.3 mph83%29.89 "HgN/A
7:00 PM75 °FPassing clouds.5 mph83%29.89 "HgN/A
6:00 PM77 °FPassing clouds.7 mph79%29.86 "HgN/A
5:00 PM79 °FScattered clouds.9 mph79%29.86 "HgN/A
4:00 PM79 °FPassing clouds.8 mph74%29.86 "HgN/A
3:00 PM81 °FPassing clouds.8 mph70%29.86 "HgN/A
2:00 PM82 °FScattered clouds.7 mph70%29.86 "HgN/A
1:00 PM81 °FScattered clouds.9 mph70%29.89 "HgN/A
12:00 PM79 °FPartly sunny.8 mph74%29.92 "Hg6 mi
11:00 AM77 °FPartly sunny.9 mph79%29.95 "Hg6 mi
10:00 AM75 °FScattered clouds.5 mph83%29.98 "HgN/A
9:00 AM73 °FScattered clouds.1 mph89%29.98 "HgN/A
8:00 AM72 °FLight rain. Scattered clouds.5 mph88%29.98 "HgN/A
7:00 AM70 °FLight rain. Broken clouds.5 mph94%29.92 "HgN/A
6:54 AM72 °FLight rain. Scattered clouds.5 mph88%29.92 "HgN/A
6:00 AM70 °FThunderstorms. Passing clouds.8 mph94%29.89 "Hg5 mi
5:00 AM72 °FThunderstorms. Passing clouds.9 mph88%29.89 "Hg5 mi
4:00 AM72 °FThunderstorms. Passing clouds.7 mph94%29.86 "Hg5 mi
3:00 AM75 °FThunderstorms. Passing clouds.12 mph83%29.83 "Hg5 mi
2:00 AM79 °FThunderstorms. Passing clouds.2 mph84%29.83 "Hg5 mi
1:00 AM79 °FThunderstorms. Passing clouds.2 mph84%29.86 "Hg5 mi
12:00 AM79 °FThunderstorms. Passing clouds.5 mph84%29.86 "Hg5 mi
11:00 PM
Sun, Mar 1
81 °FPassing clouds.6 mph74%29.86 "Hg5 mi
10:00 PM82 °FThunderstorms. Passing clouds.6 mph70%29.86 "Hg5 mi
Weather by CustomWeather, © 2015

See weather overviewHow to use our weather pages